Regional Weather Roundup
Issued by NWS

Home | Current Version | Previous Version | Graphics & Text | Print | Product List | Glossary On
Versions: 1 2 3 4 5 6 7 8 9 10 11 12 13 14 15 16 17 18 19 20 21 22 23 24 25 26 27 28 29 30 31 32 33 34 35 36 37 38 39 40 41 42 43 44 45 46 47 48 49 50
000
ASUS43 KOAX 201810
RWRNE

WEATHER ROUNDUP FOR NEBRASKA
NATIONAL WEATHER SERVICE OMAHA NE
1200 PM CST MON NOV 20 2017

NOTES: SATELLITE DATA IS BEING USED TO AUGMENT CLOUD COVER ABOVE
       12000 FEET.
       "FAIR" INDICATES FEW OR NO CLOUDS BELOW 12,000 FEET WITH NO
       SIGNIFICANT WEATHER AND/OR OBSTRUCTIONS TO VISIBILITY.


NEZ001>004-019>022-054>056-201900-
NEBRASKA PANHANDLE

CITY           SKY/WX    TMP DP  RH WIND       PRES   REMARKS
SCOTTSBLUFF    CLOUDY    62   7  11 W26G38    29.71R
6HR MIN TEMP:  32; 6HR MAX TEMP:  63;

ALLIANCE       CLOUDY    61  10  13 W28G33    29.69R
6HR MIN TEMP:  41; 6HR MAX TEMP:  61;

CHADRON        CLOUDY    59  15  18 W16G24    29.67S
6HR MIN TEMP:  30; 6HR MAX TEMP:  59;

GORDON         FAIR      57  13  17 NW25G35   29.64S
6HR MIN TEMP:  34; 6HR MAX TEMP:  57;

KIMBALL        CLOUDY    61   9  12 W29G41    29.78F
SIDNEY         SUNNY     64   3   9 W33G44    29.75F
6HR MIN TEMP:  33; 6HR MAX TEMP:  66;

$$

NEZ057>060-069>072-079>082-201900-
SOUTHWEST NEBRASKA

CITY           SKY/WX    TMP DP  RH WIND       PRES   REMARKS
NORTH PLATTE   CLOUDY    57  21  24 W10       29.69F
6HR MIN TEMP:  19; 6HR MAX TEMP:  58;

IMPERIAL       SUNNY     71   6   8 NW22G30   29.72F
6HR MIN TEMP:  23; 6HR MAX TEMP:  71;

LEXINGTON      CLOUDY    63  20  19 W15G23    29.68F
MCCOOK         SUNNY     60  24  25 SW7       29.72F
6HR MIN TEMP:  25; 6HR MAX TEMP:  60;

OGALLALA       CLOUDY    55  18  23 SW9       29.71F
$$

NEZ005>010-023>029-035>040-094-201900-
NORTH CENTRAL NEBRASKA

CITY           SKY/WX    TMP DP  RH WIND       PRES   REMARKS
VALENTINE      CLOUDY    57  19  22 W14       29.58S
6HR MIN TEMP:  32; 6HR MAX TEMP:  57;

AINSWORTH      CLOUDY    54  19  25 W18G25    29.57F
BROKEN BOW     CLOUDY    61  19  19 W17G24    29.63F
6HR MIN TEMP:  33; 6HR MAX TEMP:  61;

O`NEILL        CLOUDY    55  23  29 W10       29.56F
ORD            CLOUDY    56  20  24 W17G25    29.61F
6HR MIN TEMP:  25; 6HR MAX TEMP:  56;

THEDFORD       CLOUDY    62  16  16 W29G35    29.63F
$$

NEZ041-046>049-061>064-073>077-083>087-201900-
SOUTH CENTRAL NEBRASKA

CITY           SKY/WX    TMP DP  RH WIND       PRES   REMARKS
GRAND ISLAND   CLOUDY    59  28  30 W14       29.66F
6HR MIN TEMP:  34; 6HR MAX TEMP:  59;

AURORA         CLOUDY    55  27  33 SW12      29.67F
HASTINGS       CLOUDY    55  27  34 SW10G21   29.69F
6HR MIN TEMP:  27; 6HR MAX TEMP:  55;

HEBRON         SUNNY     56  24  28 SW15      29.72F
HOLDREGE       CLOUDY    58  25  28 W15       29.70F
YORK           CLOUDY    57  27  30 SW14      29.66F
$$

NEZ011>018-030>034-042>045-201900-
NORTHEAST NEBRASKA

CITY           SKY/WX    TMP DP  RH WIND       PRES   REMARKS
NORFOLK        CLOUDY    53  23  31 SW16      29.60F
6HR MIN TEMP:  31; 6HR MAX TEMP:  53;

ALBION         CLOUDY    56  24  28 W10       29.61F
BLAIR            N/A     54  28  36 S16       29.63
COLUMBUS       CLOUDY    53  27  36 SW14      29.64F
FREMONT        CLOUDY    53  24  32 S14G21    29.63F
TEKAMAH        CLOUDY    52  26  36 S17       29.62F
6HR MIN TEMP:  33; 6HR MAX TEMP:  53;

WAYNE          CLOUDY    53  18  25 SW13      29.58F
$$

NEZ050>053-065>068-078-088>093-201900-
SOUTHEAST NEBRASKA

CITY           SKY/WX    TMP DP  RH WIND       PRES   REMARKS
LINCOLN        CLOUDY    56  25  30 SW17      29.68F
6HR MIN TEMP:  35; 6HR MAX TEMP:  56;

OMAHA EPPLEY   CLOUDY    54  25  32 S10G22    29.66F
6HR MIN TEMP:  33; 6HR MAX TEMP:  54;

BEATRICE       SUNNY     55  26  32 S21       29.70F
FALLS CITY     SUNNY     59  25  27 SW22G35   29.74F
6HR MIN TEMP:  39; 6HR MAX TEMP:  59;

NEBRASKA CITY  SUNNY     58  28  32 SW22G31   29.70F
PLATTSMOUTH    CLOUDY    55  28  34 S20       29.68F
$$

NEZ044-045-051>053-067-201900-
OMAHA AREA

CITY           SKY/WX    TMP DP  RH WIND       PRES   REMARKS
OMAHA EPPLEY   CLOUDY    54  25  32 S10G22    29.66F
6HR MIN TEMP:  33; 6HR MAX TEMP:  54;

BLAIR            N/A     54  28  36 S16       29.63
FREMONT        CLOUDY    53  24  32 S14G21    29.63F
MILLARD        CLOUDY    56  28  34 S13G18    29.66F
OFFUTT AFB     CLOUDY    54  25  32 S13       29.67F
PLATTSMOUTH    CLOUDY    55  28  34 S20       29.68F
WAHOO          FAIR      57  25  28 S16       29.65F
$$



USA.gov is the U.S. government's official web portal to all federal, state and local government web resources and services.